Office,Perth
Station Name,Aberuthven
Location Code,14969
Parameter,River Stage(SG)
Timeseries,SG.15m.Cmd
Copyright SEPA 2018. This SEPA Data is licensed under the Open Government Licence 3.0., http://www.nationalarchives.gov.uk/doc/open-government-licence/version/3
Date/Time,SG(m)
20/12/2020 00:30:00,0.412
20/12/2020 00:45:00,0.41
20/12/2020 01:00:00,0.408
20/12/2020 01:15:00,0.405
20/12/2020 01:30:00,0.403
20/12/2020 01:45:00,0.401
20/12/2020 02:00:00,0.399
20/12/2020 02:15:00,0.397
20/12/2020 02:30:00,0.395
20/12/2020 02:45:00,0.393
20/12/2020 03:00:00,0.392
20/12/2020 03:15:00,0.39
20/12/2020 03:30:00,0.388
20/12/2020 03:45:00,0.387
20/12/2020 04:00:00,0.385
20/12/2020 04:15:00,0.384
20/12/2020 04:30:00,0.382
20/12/2020 04:45:00,0.381
20/12/2020 05:00:00,0.379
20/12/2020 05:15:00,0.378
20/12/2020 05:30:00,0.377
20/12/2020 05:45:00,0.375
20/12/2020 06:00:00,0.374
20/12/2020 06:15:00,0.373
20/12/2020 06:30:00,0.372
20/12/2020 06:45:00,0.371
20/12/2020 07:00:00,0.369
20/12/2020 07:15:00,0.368
20/12/2020 07:30:00,0.367
20/12/2020 07:45:00,0.367
20/12/2020 08:00:00,0.366
20/12/2020 08:15:00,0.364
20/12/2020 08:30:00,0.363
20/12/2020 08:45:00,0.362
20/12/2020 09:00:00,0.361
20/12/2020 09:15:00,0.36
20/12/2020 09:30:00,0.359
20/12/2020 09:45:00,0.359
20/12/2020 10:00:00,0.358
20/12/2020 10:15:00,0.356
20/12/2020 10:30:00,0.356
20/12/2020 10:45:00,0.355
20/12/2020 11:00:00,0.354
20/12/2020 11:15:00,0.353
20/12/2020 11:30:00,0.352
20/12/2020 11:45:00,0.351
20/12/2020 12:00:00,0.351
20/12/2020 12:15:00,0.35
20/12/2020 12:30:00,0.349
20/12/2020 12:45:00,0.348
20/12/2020 13:00:00,0.347
20/12/2020 13:15:00,0.347
20/12/2020 13:30:00,0.346
20/12/2020 13:45:00,0.345
20/12/2020 14:00:00,0.344
20/12/2020 14:15:00,0.344
20/12/2020 14:30:00,0.343
20/12/2020 14:45:00,0.342
20/12/2020 15:00:00,0.341
20/12/2020 15:15:00,0.341
20/12/2020 15:30:00,0.34
20/12/2020 15:45:00,0.339
20/12/2020 16:00:00,0.339
20/12/2020 16:15:00,0.338
20/12/2020 16:30:00,0.338
20/12/2020 16:45:00,0.337
20/12/2020 17:00:00,0.337
20/12/2020 17:15:00,0.336
20/12/2020 17:30:00,0.336
20/12/2020 17:45:00,0.335
20/12/2020 18:00:00,0.334
20/12/2020 18:15:00,0.334
20/12/2020 18:30:00,0.333
20/12/2020 18:45:00,0.333
20/12/2020 19:00:00,0.332
20/12/2020 19:15:00,0.331
20/12/2020 19:30:00,0.331
20/12/2020 19:45:00,0.33
20/12/2020 20:00:00,0.33
20/12/2020 20:15:00,0.329
20/12/2020 20:30:00,0.328
20/12/2020 20:45:00,0.328
20/12/2020 21:00:00,0.327
20/12/2020 21:15:00,0.327
20/12/2020 21:30:00,0.326
20/12/2020 21:45:00,0.326
20/12/2020 22:00:00,0.325
20/12/2020 22:15:00,0.325
20/12/2020 22:30:00,0.325
20/12/2020 22:45:00,0.324
20/12/2020 23:00:00,0.323
20/12/2020 23:15:00,0.324
20/12/2020 23:30:00,0.324
20/12/2020 23:45:00,0.323
21/12/2020 00:00:00,0.323
21/12/2020 00:15:00,0.323
21/12/2020 00:30:00,0.323
21/12/2020 00:45:00,0.324
21/12/2020 01:00:00,0.323
21/12/2020 01:15:00,0.323
21/12/2020 01:30:00,0.323
21/12/2020 01:45:00,0.324
21/12/2020 02:00:00,0.323
21/12/2020 02:15:00,0.323
21/12/2020 02:30:00,0.322
21/12/2020 02:45:00,0.322
21/12/2020 03:00:00,0.321
21/12/2020 03:15:00,0.321
21/12/2020 03:30:00,0.32
21/12/2020 03:45:00,0.319
21/12/2020 04:00:00,0.319
21/12/2020 04:15:00,0.318
21/12/2020 04:30:00,0.317
21/12/2020 04:45:00,0.317
21/12/2020 05:00:00,0.316
21/12/2020 05:15:00,0.315
21/12/2020 05:30:00,0.315
21/12/2020 05:45:00,0.314
21/12/2020 06:00:00,0.313
21/12/2020 06:15:00,0.313
21/12/2020 06:30:00,0.313
21/12/2020 06:45:00,0.312
21/12/2020 07:00:00,0.311
21/12/2020 07:15:00,0.311
21/12/2020 07:30:00,0.311
21/12/2020 07:45:00,0.31
21/12/2020 08:00:00,0.31
21/12/2020 08:15:00,0.309
21/12/2020 08:30:00,0.309
21/12/2020 08:45:00,0.308
21/12/2020 09:00:00,0.308
21/12/2020 09:15:00,0.307
21/12/2020 09:30:00,0.307
21/12/2020 09:45:00,0.306
21/12/2020 10:00:00,0.306
21/12/2020 10:15:00,0.305
21/12/2020 10:30:00,0.305
21/12/2020 10:45:00,0.305
21/12/2020 11:00:00,0.304
21/12/2020 11:15:00,0.304
21/12/2020 11:30:00,0.303
21/12/2020 11:45:00,0.303
21/12/2020 12:00:00,0.302
21/12/2020 12:15:00,0.301
21/12/2020 12:30:00,0.301
21/12/2020 12:45:00,0.3
21/12/2020 13:00:00,0.3
21/12/2020 13:15:00,0.3
21/12/2020 13:30:00,0.299
21/12/2020 13:45:00,0.299
21/12/2020 14:00:00,0.299
21/12/2020 14:15:00,0.299
21/12/2020 14:30:00,0.298
21/12/2020 14:45:00,0.298
21/12/2020 15:00:00,0.298
21/12/2020 15:15:00,0.298
21/12/2020 15:30:00,0.298
21/12/2020 15:45:00,0.298
21/12/2020 16:00:00,0.298
21/12/2020 16:15:00,0.298
21/12/2020 16:30:00,0.297
21/12/2020 16:45:00,0.297
21/12/2020 17:00:00,0.297
21/12/2020 17:15:00,0.297
21/12/2020 17:30:00,0.298
21/12/2020 17:45:00,0.298
21/12/2020 18:00:00,0.298
21/12/2020 18:15:00,0.298
21/12/2020 18:30:00,0.298
21/12/2020 18:45:00,0.298
21/12/2020 19:00:00,0.298
21/12/2020 19:15:00,0.298
21/12/2020 19:30:00,0.298
21/12/2020 19:45:00,0.298
21/12/2020 20:00:00,0.298
21/12/2020 20:15:00,0.297
21/12/2020 20:30:00,0.297
21/12/2020 20:45:00,0.296
21/12/2020 21:00:00,0.296
21/12/2020 21:15:00,0.296
21/12/2020 21:30:00,0.295
21/12/2020 21:45:00,0.294
21/12/2020 22:00:00,0.294
21/12/2020 22:15:00,0.293
21/12/2020 22:30:00,0.293
21/12/2020 22:45:00,0.292
21/12/2020 23:00:00,0.292
21/12/2020 23:15:00,0.291
21/12/2020 23:30:00,0.29
21/12/2020 23:45:00,0.29
22/12/2020 00:00:00,0.289
22/12/2020 00:15:00,0.288
22/12/2020 00:30:00,0.288
22/12/2020 00:45:00,0.287
22/12/2020 01:00:00,0.287
22/12/2020 01:15:00,0.286
22/12/2020 01:30:00,0.286
22/12/2020 01:45:00,0.285
22/12/2020 02:00:00,0.285
22/12/2020 02:15:00,0.284
22/12/2020 02:30:00,0.283
22/12/2020 02:45:00,0.283
22/12/2020 03:00:00,0.282
22/12/2020 03:15:00,0.282
22/12/2020 03:30:00,0.281
22/12/2020 03:45:00,0.281
22/12/2020 04:00:00,0.28
22/12/2020 04:15:00,0.28
22/12/2020 04:30:00,0.28
22/12/2020 04:45:00,0.279
22/12/2020 05:00:00,0.279
22/12/2020 05:15:00,0.278
22/12/2020 05:30:00,0.278
22/12/2020 05:45:00,0.277
22/12/2020 06:00:00,0.277
22/12/2020 06:15:00,0.277
22/12/2020 06:30:00,0.276
22/12/2020 06:45:00,0.276
22/12/2020 07:00:00,0.276
22/12/2020 07:15:00,0.275
22/12/2020 07:30:00,0.275
22/12/2020 07:45:00,0.275
22/12/2020 08:00:00,0.274
22/12/2020 08:15:00,0.274
22/12/2020 08:30:00,0.274
22/12/2020 08:45:00,0.273
22/12/2020 09:00:00,0.273
22/12/2020 09:15:00,0.272
22/12/2020 09:30:00,0.273
22/12/2020 09:45:00,0.272
22/12/2020 10:00:00,0.272
22/12/2020 10:15:00,0.272
22/12/2020 10:30:00,0.271
22/12/2020 10:45:00,0.271
22/12/2020 11:00:00,0.27
22/12/2020 11:15:00,0.27
22/12/2020 11:30:00,0.269
22/12/2020 11:45:00,0.269
22/12/2020 12:00:00,0.268
22/12/2020 12:15:00,0.268
22/12/2020 12:30:00,0.268
22/12/2020 12:45:00,0.267
22/12/2020 13:00:00,0.267
22/12/2020 13:15:00,0.267
22/12/2020 13:30:00,0.266
22/12/2020 13:45:00,0.266
22/12/2020 14:00:00,0.266
22/12/2020 14:15:00,0.266
22/12/2020 14:30:00,0.266
22/12/2020 14:45:00,0.265
22/12/2020 15:00:00,0.265
22/12/2020 15:15:00,0.265
22/12/2020 15:30:00,0.265
22/12/2020 15:45:00,0.264
22/12/2020 16:00:00,0.264
22/12/2020 16:15:00,0.263
22/12/2020 16:30:00,0.263
22/12/2020 16:45:00,0.263
22/12/2020 17:00:00,0.263
22/12/2020 17:15:00,0.263
22/12/2020 17:30:00,0.262
22/12/2020 17:45:00,0.262
22/12/2020 18:00:00,0.262
22/12/2020 18:15:00,0.261
22/12/2020 18:30:00,0.261
22/12/2020 18:45:00,0.261
22/12/2020 19:00:00,0.261
22/12/2020 19:15:00,0.261
22/12/2020 19:30:00,0.26
22/12/2020 19:45:00,0.26
22/12/2020 20:00:00,0.26
22/12/2020 20:15:00,0.259
22/12/2020 20:30:00,0.258
22/12/2020 20:45:00,0.258
22/12/2020 21:00:00,0.259
22/12/2020 21:15:00,0.259
22/12/2020 21:30:00,0.258
22/12/2020 21:45:00,0.258
22/12/2020 22:00:00,0.258
22/12/2020 22:15:00,0.257
22/12/2020 22:30:00,0.257
22/12/2020 22:45:00,0.256
22/12/2020 23:00:00,0.256
22/12/2020 23:15:00,0.256
22/12/2020 23:30:00,0.256
22/12/2020 23:45:00,0.256
23/12/2020 00:00:00,0.255
23/12/2020 00:15:00,0.255
23/12/2020 00:30:00,0.255
23/12/2020 00:45:00,0.254
23/12/2020 01:00:00,0.254
23/12/2020 01:15:00,0.254
23/12/2020 01:30:00,0.253
23/12/2020 01:45:00,0.253
23/12/2020 02:00:00,0.253
23/12/2020 02:15:00,0.252
23/12/2020 02:30:00,0.252
23/12/2020 02:45:00,0.252
23/12/2020 03:00:00,0.252
23/12/2020 03:15:00,0.251
23/12/2020 03:30:00,0.251
23/12/2020 03:45:00,0.251
23/12/2020 04:00:00,0.251
23/12/2020 04:15:00,0.251
23/12/2020 04:30:00,0.25
23/12/2020 04:45:00,0.25
23/12/2020 05:00:00,0.25
23/12/2020 05:15:00,0.25
23/12/2020 05:30:00,0.249
23/12/2020 05:45:00,0.249
23/12/2020 06:00:00,0.249
23/12/2020 06:15:00,0.249
23/12/2020 06:30:00,0.248
23/12/2020 06:45:00,0.248
23/12/2020 07:00:00,0.248
23/12/2020 07:15:00,0.248
23/12/2020 07:30:00,0.248
23/12/2020 07:45:00,0.247
23/12/2020 08:00:00,0.247
23/12/2020 08:15:00,0.247
23/12/2020 08:30:00,0.247
23/12/2020 08:45:00,0.246
23/12/2020 09:00:00,0.246
23/12/2020 09:15:00,0.246
23/12/2020 09:30:00,0.246
23/12/2020 09:45:00,0.245
23/12/2020 10:00:00,0.245
23/12/2020 10:15:00,0.245
23/12/2020 10:30:00,0.245
23/12/2020 10:45:00,0.245
23/12/2020 11:00:00,0.245
23/12/2020 11:15:00,0.244
23/12/2020 11:30:00,0.244
23/12/2020 11:45:00,0.244
23/12/2020 12:00:00,0.243
23/12/2020 12:15:00,0.243
23/12/2020 12:30:00,0.242
23/12/2020 12:45:00,0.242
23/12/2020 13:00:00,0.243
23/12/2020 13:15:00,0.242
23/12/2020 13:30:00,0.242
23/12/2020 13:45:00,0.242
23/12/2020 14:00:00,0.241
23/12/2020 14:15:00,0.241
23/12/2020 14:30:00,0.241
23/12/2020 14:45:00,0.241
23/12/2020 15:00:00,0.24
23/12/2020 15:15:00,0.24
23/12/2020 15:30:00,0.24
23/12/2020 15:45:00,0.24
23/12/2020 16:00:00,0.24
23/12/2020 16:15:00,0.24
23/12/2020 16:30:00,0.239
23/12/2020 16:45:00,0.239
23/12/2020 17:00:00,0.239
23/12/2020 17:15:00,0.238
23/12/2020 17:30:00,0.239
23/12/2020 17:45:00,0.238
23/12/2020 18:00:00,0.238
23/12/2020 18:15:00,0.238
23/12/2020 18:30:00,0.237
23/12/2020 18:45:00,0.237
23/12/2020 19:00:00,0.237
23/12/2020 19:15:00,0.237
23/12/2020 19:30:00,0.236
23/12/2020 19:45:00,0.236
23/12/2020 20:00:00,0.236
23/12/2020 20:15:00,0.236
23/12/2020 20:30:00,0.235
23/12/2020 20:45:00,0.235
23/12/2020 21:00:00,0.235
23/12/2020 21:15:00,0.235
23/12/2020 21:30:00,0.235
23/12/2020 21:45:00,0.234
23/12/2020 22:00:00,0.234
23/12/2020 22:15:00,0.234
23/12/2020 22:30:00,0.234
23/12/2020 22:45:00,0.233
23/12/2020 23:00:00,0.233
23/12/2020 23:15:00,0.233
23/12/2020 23:30:00,0.233
23/12/2020 23:45:00,0.232
